Location: Newark
(37.8333°N, 119.5000°W)
Time: 20:34:40
(UTC+00:00)

Tiros 1 despin weight - Pass Details

Date: 24 August 2019
Orbit: 594 x 642 km, 48.2° (Epoch: 22 September)

Event Time Altitude Azimuth Distance (km) Brightness Sun altitude
Rises 10:38:06 0° 303° (WNW) 2,862 - -28.7°
Reaches altitude 10° 10:40:42 10° 316° (NW) 1,966 - -28.4°
Exits shadow 10:42:32 19° 335° (NNW) 1,459 ? -28.1°
Maximum altitude 10:44:31 26° 14° (NNE) 1,218 ? -27.8°
Drops below altitude 10° 10:48:22 10° 71° (ENE) 1,990 ? -27.3°
Sets 10:51:01 0° 84° (E) 2,904 ? -26.9°
